Regional Weather Roundup
Issued by NWS

Home | Current Version | Previous Version | Graphics & Text | Print | Product List | Glossary On
Versions: 1 2 3 4 5 6 7 8 9 10 11 12 13 14 15 16 17 18 19 20 21 22 23 24 25 26 27 28 29 30 31 32 33 34 35 36 37 38 39 40 41 42 43 44 45 46 47 48 49 50
000
ASUS45 KCYS 210410
RWRWY

WYOMING REGIONAL WEATHER ROUNDUP
NATIONAL WEATHER SERVICE CHEYENNE WY
900 PM MST THU NOV 20 2014

NOTE:  "FAIR" INDICATES FEW OR NO CLOUDS BELOW 12,000 FEET
WITH NO SIGNIFICANT WEATHER AND/OR OBSTRUCTIONS TO VISIBILITY.

WYZ001-210500-
YELLOWSTONE NATIONAL PARK

CITY           SKY/WX    TMP DP  RH WIND       PRES   REMARKS
LK YELLOWSTONE   N/A     28  23  81 CALM      30.02S
W YELLOWSTONE  NOT AVBL

$$
WYZ002>013-054>058-071-098>099-210500-
NORTHERN WYOMING

CITY           SKY/WX    TMP DP  RH WIND       PRES   REMARKS
JACKSON        MOCLDY    19  19 100 CALM      30.04F
CODY           MOCLDY    45  21  39 W5G18     29.88S
GREYBULL       MOCLDY    14  11  87 CALM      29.92F
WORLAND        CLOUDY    17  13  84 CALM      29.90F
SHERIDAN       MOCLDY    30  24  78 CALM      29.84F
BUFFALO        CLOUDY    42  17  36 S5        29.86F
GILLETTE       PTCLDY    25  19  78 CALM      29.86S
HULETT           N/A    N/A N/A N/A MISG        N/A
NEWCASTLE      FAIR      25  19  80 CALM      29.92R

$$
WYZ014>020-022>026-101>103-210500-
CENTRAL WYOMING

CITY           SKY/WX    TMP DP  RH WIND       PRES   REMARKS
BIG PINEY      MOCLDY    19  14  81 N3        30.03F
PINEDALE       CLOUDY    21  18  86 NW5       30.03F WCI  15
DUBOIS         CLOUDY    32  19  59 NW10      29.97S WCI  24
LANDER         NOT AVBL
RIVERTON       CLOUDY    22  17  81 SW5       29.93F WCI  16
CASPER         MOCLDY    36  21  54 SW9       29.93S WCI  29
DOUGLAS        PTCLDY    24  19  81 S5        29.93S WCI  18

$$
WYZ021-027>030-104>119-210500-
SOUTHERN WYOMING

CITY           SKY/WX    TMP DP  RH WIND       PRES   REMARKS
EVANSTON       MOCLDY    29  15  56 SW9       30.04F WCI  20
KEMMERER       MOCLDY    28  16  59 CALM      30.04S
FORT BRIDGER   FAIR      33  16  49 SW8       30.06S WCI  25
ROCK SPRINGS   CLOUDY    34  19  54 SW8       30.04S WCI  27
DIXON          CLOUDY    34  19  55 CALM      30.10R
RAWLINS        CLOUDY    35  24  64 SW13      30.02S WCI  26
SARATOGA       CLOUDY    32  21  64 CALM      30.04S
LARAMIE        MOCLDY    33  22  63 W10       30.00R WCI  25
CHEYENNE       MOCLDY    34  16  47 SW3       29.97F
TORRINGTON     PTCLDY    29  17  61 E6        29.93S WCI  23
PINE BLUFFS    FAIR      28  14  54 SW3       29.98S

$$


USA.gov is the U.S. government's official web portal to all federal, state and local government web resources and services.